Flag Weather past 2 weeks in Altdorf, Uri, Switzerland

Now
43 °F

Quite cool.


Feels Like: 41 °F
Forecast: 39 / 55 °F
Wind: 3 mph from Southeast

Location: Altdorf

Current Time: Nov 24, 2014 at 6:23:07 AM

Latest Report: Nov 24, 2014 at 5:00 AM


Visibility: N/A

Pressure: 30.21 "Hg

Humidity: 95%

Dew point: 42 °F

Location of AltdorfLocation

Historic Weather in Altdorf — Graph

°F

Altdorf temperature yesterday

Maximum temperature yesterday: 45 °F (at 2:00 PM)
Minimum temperature yesterday: 37 °F (at 8:00 AM)
Average temperature yesterday: 41 °F

Past Weeks' High & Low Weather Summary

 TemperatureHumidityPressure
High68 °F (Nov 11, 1:00 PM)100% (Nov 13, 8:00 AM)30.33 "Hg (Nov 13, 8:00 AM)
Low30 °F (Nov 20, 2:00 AM)32% (Nov 11, 1:00 PM)29.55 "Hg (Nov 15, 2:00 AM)
Average46 °F87%29.92 "Hg
* Reported Nov 9 5:00 AM — Nov 24 5:00 AM, Altdorf, Weather by CustomWeather, © 2014

Note: Actual official high and low records may vary slightly from our data, if they occured in-between our weather recording intervals... More about our weather records

Advertising

Altdorf weather history for previous 24 hours

 ConditionsComfort  
Time TempWeatherWind HumidityBarometerVisibility
5:00 AM
Nov 24
43 °FQuite cool.3 mph95%30.21 "HgN/A
4:00 AM43 °FPassing clouds.6 mph95%30.22 "Hg12 mi
3:00 AM42 °FQuite cool.3 mph97%30.24 "HgN/A
2:00 AM43 °FQuite cool.2 mph96%30.21 "HgN/A
1:00 AM44 °FPassing clouds.3 mph95%30.22 "Hg11 mi
12:00 AM43 °FQuite cool.1 mph97%30.23 "HgN/A
11:00 PM
Nov 23
43 °FQuite cool.2 mph97%30.21 "HgN/A
10:00 PM44 °FOvercast.2 mph97%30.22 "Hg9 mi
9:00 PM43 °FQuite cool.2 mph100%30.23 "HgN/A
8:00 PM43 °FQuite cool.1 mph97%30.22 "HgN/A
7:00 PM43 °FFog.1 mph98%30.21 "Hg1 mi
6:00 PM43 °FQuite cool.3 mph99%30.22 "HgN/A
5:00 PM43 °FQuite cool.2 mph98%30.21 "HgN/A
4:00 PM44 °FFog.1 mph96%30.21 "Hg1 mi
3:00 PM44 °FQuite cool.2 mph95%30.22 "HgN/A
2:00 PM45 °FQuite cool.1 mph94%30.23 "HgN/A
1:00 PM44 °FFog.2 mph95%30.24 "Hg1 mi
12:00 PM43 °FQuite cool.1 mph96%30.26 "HgN/A
11:00 AM42 °FQuite cool.1 mph100%30.27 "HgN/A
10:00 AM39 °FFog.1 mph100%30.27 "Hg1 mi
9:00 AM38 °FChilly.2 mph100%30.27 "HgN/A
8:00 AM37 °FChilly.1 mph100%30.27 "HgN/A
7:00 AM38 °FFog.2 mph100%30.25 "Hg0 mi
6:00 AM39 °FChilly.1 mph100%30.25 "HgN/A
Weather by CustomWeather, © 2014

See weather overviewHow to use our weather pages